Miscellaneous Local Product
Issued by NWS North Platte, NE

Home | Current Version | Previous Version | Text Only | Print | Product List | Glossary On
Versions: 1 2 3 4 5 6 7 8 9 10 11 12 13 14 15 16 17 18 19 20 21 22 23 24 25 26 27 28 29 30 31 32 33 34 35 36 37 38 39 40 41 42 43 44 45 46 47 48 49 50
000
AXUS43 KLBF 251010
MISLBF


WESTERN AND NORTH CENTRAL NEBRASKA HOURLY WEATHER ROUNDUP
NATIONAL WEATHER SERVICE NORTH PLATTE NE
500 AM CDT SAT OCT 25 2014

***STATIONS NOT REPORTING VARIABLES SUCH AS SKY/WEATHER OR
PRESSURE ARE PROVIDED BY THE NEBRASKA DEPARTMENT OF
ROADS...RAWS...AND APRS NETWORKS...AND ARE NOT UNDER
NATIONAL WEATHER SERVICE QUALITY CONTROL***

...OBSERVATIONS IN AND NEAR THE EASTERN PANHANDLE OF NEBRASKA...

CITY           SKY/WX    TMP DP  RH WIND       PRES   REMARKS
PINE RIDGE     CLEAR     31  29  92 CALM      30.16S
CHADRON        CLEAR     33  31  92 SW7       30.17S WCI  27
ALLIANCE       CLEAR     31  28  89 NW3       30.15S
SIDNEY         CLEAR     41  30  65 W10       30.15S
WHITECLAY        N/A     29  26  90 SE3         N/A
RUSHVILLE        N/A     40  33  75 NE9         N/A  WCI  34
CRESCENT LAKE    N/A     39  30  70 NW6         N/A  WCI  35
LISCO            N/A     40  29  64 W3          N/A
BIG SPRINGS      N/A     43  35  73 CALM        N/A
LEWELLEN         N/A     39  35  87 W3          N/A
$$

...OBSERVATIONS IN NORTH CENTRAL NEBRASKA...

CITY           SKY/WX    TMP DP  RH WIND       PRES   REMARKS
VALENTINE      CLEAR     48  34  58 NE8       30.13S
THEDFORD       CLEAR     44  36  73 CALM      30.10F
AINSWORTH      CLEAR     43  34  69 NE5       30.12S
O`NEILL        CLEAR     51  40  66 N8        30.11S
ORD            CLEAR     38  36  92 NW6       30.09R WCI  33
BROKEN BOW     CLEAR     43  39  86 N5        30.08R
BROWNLEE         N/A     51  36  57 N15         N/A
SPRINGVIEW       N/A     40  36  87 CALM        N/A
BREWSTER         N/A     39  37  92 CALM        N/A
ROSE             N/A     50  39  66 NE7         N/A
NEWPORT          N/A     47  36  67 NE5         N/A
SARGENT          N/A     40  38  93 CALM        N/A
COMSTOCK         N/A     47  42  82 CALM        N/A
CHAMBERS         N/A     47  37  69 CALM        N/A
EWING            N/A     52  42  69 CALM        N/A
$$

...OBSERVATIONS IN SOUTHWEST NEBRASKA AND FAR NORTHEAST COLORADO...

CITY           SKY/WX    TMP DP  RH WIND       PRES   REMARKS
WRAY           FAIR      41  31  68 W8        30.12S
HOLYOKE        FAIR      45  34  65 W6        30.11S
IMPERIAL       CLEAR     46  34  62 W5        30.09S
OGALLALA       CLEAR     38  34  87 SW6       30.10S WCI  33
NORTH PLATTE   CLEAR     37  34  89 CALM      30.08S
MCCOOK         CLEAR     42  35  76 W7        30.07S
LEXINGTON      CLEAR     40  38  91 W5        30.07S
PAXTON           N/A     42  35  76 CALM        N/A
SUTHERLAND       N/A     38  33  80 W5          N/A  WCI  35
BRADY            N/A     39  34  83 CALM        N/A
GOTHENBURG       N/A     45  38  76 CALM        N/A
CALLAWAY         N/A     47  42  82 SE3         N/A
$$

...SOME WEATHER OBSERVATIONS FROM AROUND THE REGION...

CITY           SKY/WX    TMP DP  RH WIND       PRES   REMARKS
DENVER         CLEAR     51  23  33 VRB5      30.21S
LARAMIE        PTCLDY    39  21  48 S8        30.31F WCI  33
CHEYENNE       CLEAR     45  23  42 W9        30.25S
SCOTTSBLUFF    CLEAR     40  32  73 CALM      30.14S
RAPID CITY     CLEAR     42  32  67 NW8       30.15F
PIERRE         PTCLDY    43  34  70 NW7       30.11S
WINNER         FAIR      49  36  61 SW6       30.12S
SIOUX FALLS    PTCLDY    45  41  86 CALM      30.07R
OMAHA          CLEAR     47  45  93 N8        30.04R
GRAND ISLAND   CLEAR     45  41  86 N5        30.06R
KANSAS CITY    FOG       57  57 100 W5        30.02R VSB 1/4
WICHITA        FOG       56  54  93 CALM      30.03S VSB 1/4
HAYS           CLEAR     48  43  81 CALM      30.05S
LIBERAL        CLEAR     48  37  66 W7        30.11S
GOODLAND       CLEAR     47  34  60 W7        30.12S
$$



USA.gov is the U.S. government's official web portal to all federal, state and local government web resources and services.